Zurück zum Katalog

AYAME 2 DEB

AktivHEO
NORAD 38685·DEBRIS·🇯🇵 Japan

Gestartet Feb 22, 1980 von Tanegashima Space Center

Loading…

Nächste Überflüge (nächste 24 Stunden)

TLE

AktuellSource: Space-Track

Epoche: Sep 11, 2026, 20:53 UTC

1 38685U 80018F   26254.87043147 -.00000166  00000-0  00000+0 0  9993
2 38685  10.2042  12.4816 4387771 346.5724   4.6791  1.76288011 91147

Verfolge AYAME 2 DEB in Echtzeit mit AllMySat

Download on the App Store